Preview of NWS' New Version of Forecast
This preview is not operational and should not be used for support decisions.
Latest weather observations around

Cheyenne, Cheyenne Airport (KCYS)

Using English Units (Switch to International System of Units)
Date/ Time (MDT) Wind (mph) Vis. (mi) Weather Sky Cond. Temp (°F) Rel. Humidity Wind Chill (°F) Heat Index (°F) Pressure Precip. (in)
Air Dwpt 6 hour Altimeter (inHg) Sea level (inHg) 1 hr 3 hr 6 hr
Max Min
Sep 15 01:53 W 9 10 Clear CLR 52 31     44%     30.24 30      
Sep 15 00:53 W 9 10 Clear CLR 54 30     40%     30.25 30.01      
Sep 14 23:53 W 10 10 Clear CLR 54 33     45%     30.25 30.02      
Sep 14 22:53 WNW 7 10 Clear CLR 57 32     39%     30.25 30.02      
Sep 14 21:53 W 9 10 Clear CLR 59 32     36%     30.26 30.02      
Sep 14 20:53 Calm 10 Clear CLR 65 32     29%     30.25        
Sep 14 19:53 SW 5 10 Clear CLR 69 31     24%     30.23 30.01      
Sep 14 18:53 WNW 6 10 Clear CLR 75 27     17%   73 30.21 30.01      
Sep 14 17:53 7 10 Clear CLR 80 25     13%   78 30.21 29.99      
Sep 14 16:53 W 14 10 Clear CLR 82 25     12%   80 30.21 29.97      
Sep 14 15:53 NW 13 10 Clear CLR 82 25     12%   80 30.2 29.96      
Sep 14 14:53 W 15 10 Clear CLR 82 24     12%   80 30.21 29.98      
Sep 14 13:53 W 13 10 Clear CLR 82 24     12%   80 30.23 30      
Sep 14 12:53 WNW 10 10 Clear CLR 79 23     13%   77 30.25 30.01      
Sep 14 11:53 W 11 10 Clear CLR 77 24     14%   75 30.26 30.04      
Sep 14 10:53 WNW 11 10 Clear CLR 75 24     15%   73 30.27 30.05      
Sep 14 09:53 W 14 10 Clear CLR 73 23     15%   71 30.28 30.05      
Sep 14 08:53 WSW 10 10 Clear CLR 69 31     24%     30.27 30.05      
Sep 14 07:53 Calm 10 Clear CLR 56 32     40%     30.27 30.08      
Sep 14 06:53 NW 3 10 Clear CLR 47 31     53% 46   30.25 30.07      
Sep 14 05:53 SW 9 10 Clear CLR 45 32     60% 40   30.24 30.04      
Sep 14 04:53 WNW 6 10 Clear CLR 50 30     46%     30.24 30.03      
Sep 14 03:53 W 11 10 Clear CLR 51 32     48%     30.24 30.01      
Sep 14 02:53 WNW 7 10 Clear CLR 47 32     56% 44   30.25 30.04      
Sep 14 01:53 W 7 10 Clear CLR 49 32     52% 46   30.26 30.05      
Sep 14 00:53 W 8 10 Clear CLR 52 32     46%     30.26 30.05      
Sep 13 23:53 WSW 8 10 Clear CLR 51 36     56%     30.25 30.06      
Sep 13 22:53 W 7 10 Clear CLR 52 36     54%     30.26 30.07      
Sep 13 21:53 WNW 8 10 Clear CLR 57 34     42%     30.26 30.06      
Sep 13 20:53 WSW 7 10 Clear CLR 59 35     41%     30.26 30.07      
Sep 13 19:53 SSW 9 10 Clear   63 35     35%     30.24 30.07      
Sep 13 18:53 S 8 10 Clear CLR 69 34     27%     30.23 30.05      
Sep 13 17:53 SSE 7 10 Clear CLR 74 29     19%   72 30.22 30.04      
Sep 13 16:53 SE 9 10 Clear CLR 75 29     18%   73 30.22 30.03      
Sep 13 15:53 5 10 Clear CLR 78 27     15%   76 30.22        
Sep 13 14:53 Calm 10 Clear CLR 76 27     16%   74 30.24 30.03      
Sep 13 13:53 3 10 Clear CLR 73 26     17%   71 30.27 30.08      
Sep 13 12:53 Calm 10 Clear CLR 70 24     18%     30.29 30.11      
Sep 13 11:53 Calm 10 Clear CLR 69 25     19%     30.32 30.14      
Sep 13 10:53 5 10 Clear CLR 67 28     23%     30.34 30.17      
Sep 13 09:53 Calm 10 Clear CLR 65 32     29%     30.35 30.17      
Notice The following observation data may not be complete
Sep 13 08:53 W 6 10 Clear CLR   36      %     30.36 30.2      
Sep 13 07:53 W 5 10 Clear CLR 51 35     54%     30.36 30.21      
Sep 13 06:53 SW 8 10 Clear CLR 45 34     65% 41   30.35 30.2      
Sep 13 05:53 NW 3 10 Clear CLR 42 33     70% 40   30.35 30.21      
Sep 13 04:53 WSW 6 10 Clear CLR 43 33     68% 39   30.35 30.19      
Sep 13 03:53 WNW 7 10 Clear CLR 45 33     63% 41   30.34 30.19      
Sep 13 02:53 W 9 10 Clear CLR 47 34     60% 43   30.35 30.18      
Sep 13 01:53 WNW 7 10 Clear CLR 44 34     67% 40   30.35 30.2      
Sep 13 00:53 Calm 10 Clear CLR 46 35     65%     30.36 30.2      
Sep 12 23:53 SW 5 10 Clear CLR 46 36     68% 44   30.35 30.19      
Sep 12 22:53 WSW 6 10 Clear CLR 46 34     63% 43   30.35 30.2      
Sep 12 21:53 W 8 10 Clear CLR 50 34     54%     30.35 30.19      
Sep 12 20:53 WSW 7 10 Clear CLR 53 33     46%     30.35 30.19      
Sep 12 19:53 WNW 11 10 Clear CLR 58 32     37%     30.33 30.18      
Sep 12 18:53 W 17 10 Clear CLR 62 31     31%     30.32 30.16      
Sep 12 17:53 WNW 16 10 Mostly Clear FEW075 64 30     28%     30.3 30.14      
Sep 12 16:53 WNW 23 10 Clear and Windy CLR 66 30     26%     30.28 30.1      
Sep 12 15:53 WNW 25 10 Mostly Clear and Windy FEW070 65 29     26%     30.28 30.11      
Sep 12 14:53 WNW 28 10 Clear and Breezy CLR 66 31     27%     30.28 30.1      
Sep 12 13:53 WNW 23 10 Mostly Clear and Windy FEW065 65 32     29%     30.28 30.09      
Sep 12 12:53 WNW 23 10 Mostly Clear and Windy FEW060 63 33     33%     30.29 30.11      
Sep 12 11:53 W 17 10 Clear CLR 63 33     33%     30.27 30.09      
Sep 12 10:53 WNW 21 10 Mostly Clear and Windy FEW060 61 33     35%     30.27 30.09      
Sep 12 09:53 W 20 10 Clear and Windy CLR 59 35     41%     30.26 30.08      
Sep 12 08:53 W 17 10 Clear CLR 56 36     47%     30.26 30.08      
Sep 12 07:53 NW 6 10 Clear CLR 50 37     61%     30.24 30.09      
Sep 12 06:53 WNW 13 10 Clear CLR 48 36     63% 43   30.24 30.09      
Sep 12 05:53 WNW 8 10 Clear CLR 46 37     71% 42   30.22 30.09      
Sep 12 04:53 WNW 13 10 Clear CLR 49 36     61% 44   30.21 30.06      
Sep 12 03:53 WNW 10 10 Mostly Clear FEW047 49 37     63% 45   30.21 30.06      
Sep 12 02:53 NW 10 10 Partly Cloudy SCT050 51 37     59%     30.2 30.01      
May 14 17:53 NNE 20 10 Mostly Cloudy and Windy BKN085 55 41     59%     30.12 29.98     0
May 14 09:53 WSW 3 10 Clear CLR 56 47     72%     30.11 29.96      
May 14 04:42 S 7 0.25 Fog VV002 45 45     100% 41   30.1        
May 14 04:14 SSE 5 8 Partly Cloudy SCT001 42 42     100% 39   30.09        
May 14 00:53 NW 5 10 Partly Cloudy SCT100 48 48     100% 46   30.11 29.96      
May 13 10:53 5 10 Cloudy BKN015 OVC020 53 48     83%     30.08 29.95      
May 13 03:40 S 3 1.25 Fog/Mist OVC002 47 47     100% 46   30.04        
May 13 00:15 SE 10 3 Fog/Mist OVC002 46 46     100% 41   30.05        
May 12 14:53 SE 13 10 Cloudy BKN014 OVC020 54 49     83%     30 29.88      
May 12 07:53 ENE 6 2.5 Fog/Mist OVC005 42 42     100% 38   30.03 29.93      
May 11 20:38 E 18 1.75 Light Rain and Fog/Mist OVC002 51 51     100%     29.88   0    
Jun 11 04:53 N 20 10 Clear and Windy CLR 56 45     67%     29.8 29.53      
Jun 10 02:53 NNW 5 10 Clear CLR 59 34     39%     29.73 29.45      
Jun 09 11:53 W 23 10 Clear and Windy CLR 79 29     16%   77 29.93 29.65      
Jun 08 10:53 SSE 8 10 Clear CLR 71 52     51%   70 30.11 29.88      
Jun 07 17:32 WSW 13 10 Mostly Clear FEW090 FEW110 72 52     49%   71 30.13        
Jun 06 13:53 6 10 Partly Cloudy SCT050 70 50     49%     30.27 30.04      
Jun 05 20:53 Calm 10 Clear   67 44     44%     30.15 29.91      
Jun 05 17:53 N 15 10 Clear CLR 70 41     35%     30.11 29.91      
Jun 05 14:53 SW 20 10 Clear and Windy CLR 77 46     33%   76 30.1 29.86